カタログに戻る

ECHO 1 DEB

MYLAR OBJ

LostUNKNOWN
NORAD 52·DEBRIS·🇺🇸 United States

打ち上げ Aug 12, 1960 から Cape Canaveral Space Force Station

Loading…

次のパス (今後24時間)

TLE

古いSource: Space-Track

元期: Feb 28, 1976, 05:01 UTC

1 00052U 60009D   76059.20960648 +.00000225 +00000-0 +10000-3 0  9997
2 00052 047.1450 002.7500 1406000 181.1400 000.0000 12.17682743007435

AllMySatでECHO 1 DEBをリアルタイム追跡

Download on the App Store